Location: Roc des P�zouls
(43.9667°N, 3.5500°E)
Time: 06:35:16
(UTC+00:00)

Cosmos 2058 - Pass Details

Date: 14 November 2019
Orbit: 562 x 585 km, 82.5° (Epoch: 05 December)

Event Time Altitude Azimuth Distance (km) Brightness Sun altitude
Rises 05:25:29 0° 212° (SSW) 2,798 6.2 -13.3°
Reaches altitude 10° 05:27:53 10° 223° (SW) 1,903 5.3 -12.9°
Maximum altitude 05:31:36 30° 285° (WNW) 1,060 3.7 -12.2°
Drops below altitude 10° 05:35:21 10° 348° (NNW) 1,912 5.3 -11.6°
Sets 05:37:46 0° 359° (N) 2,814 6.3 -11.2°
